Погода в Юмагузино

Россия / Республика Башкортостан     52°53′58″N   56°23′27″E
темп.,
°C
ветер,
м/с
пор.,
м/с
влажн.,
%
обл.,
%
осадки,
мм/ч
давл.,
гПа
погр.,
м
23 апреля, пт
пт2323:00+2юв31197100 4.4 1033530
02:00+2вюв31197100 4.1 1032567
05:00+3в2498100 4.3 1031160
08:00+6вюв3977100 0.0 1029421
11:00+11юв61056100 0.0 1028763
14:00+11ю6859100 0.0 10281184
17:00+7юв4986100 0.8 10281088
20:00+7вюв4982100 1.6 1026610
24 апреля, сб
сб2423:00+7юв51180100 1.8 10241057
02:00+7юв51186100 0.8 10221032
05:00+7вюв61277100 1.8 1019704
08:00+5вюв61287100 0.6 10171043
11:00+5вюв71294100 3.1 1015926
14:00+4вюв51296100 1.1 1014822
17:00+5в2896100 1.5 1013735
20:00+5вюв1196100 0.5 101337
25 апреля, вс
вс2523:00+5ююз2497100 0.9 1014266
02:00+5ююз2599100 0.1 1014240
05:00+4ю359793 0.1 1015274
08:00+5ююв41095100 0.6 1013354
11:00+7ю61393100 0.9 10131302
14:00+11зюз8125580 1.6 10132169
17:00+9зюз9145878 2.2 10151741
20:00+7зюз613545 0.4 1017526
26 апреля, пн
пн2623:00+4юз38705 0.4 1019179
02:00+2ююз227999 0.0 102026
05:00+2ююз2282100 0.0 102215
08:00+4юз2575100 0.0 1023307
11:00+7юз3362100 0.0 1022781
14:00+9ю3347100 0.0 10211098
17:00+7ююв6666100 0.1 1020731
20:00+5вюв3784100 0.5 1018358
27 апреля, вт
вт2723:00+5в3989100 2.0 1014333
02:00+6в41191100 4.1 1010448
05:00+6всв2492100 4.8 1008143
08:00+7св2288100 0.1 1006156
11:00+9сз2284100 0.1 1006337
14:00+9зсз3484100 0.0 1007599
17:00+9сз4582100 0.1 1008840
20:00+7сз3786100 0.0 1010747